Year,Month,Day,Hour,Minute,Value (Times are PST for windgust in km/hr)
2017,06,17,00,03,3.20
2017,06,17,00,06,1.60
2017,06,17,00,14,1.60
2017,06,17,00,51,1.60
2017,06,17,00,52,1.60
2017,06,17,00,58,1.60
2017,06,17,03,00,1.60
2017,06,17,03,02,1.60
2017,06,17,03,03,3.20
2017,06,17,03,04,4.80
2017,06,17,03,05,6.40
2017,06,17,03,06,3.20
2017,06,17,03,07,4.80
2017,06,17,03,08,6.40
2017,06,17,03,09,6.40
2017,06,17,03,10,6.40
2017,06,17,03,11,8.10
2017,06,17,03,12,8.10
2017,06,17,03,13,8.10
2017,06,17,03,14,4.80
2017,06,17,03,15,4.80
2017,06,17,03,16,8.10
2017,06,17,03,17,8.10
2017,06,17,03,18,6.40
2017,06,17,03,19,8.10
2017,06,17,03,20,8.10
2017,06,17,03,21,8.10
2017,06,17,03,22,9.60
2017,06,17,03,23,9.60
2017,06,17,03,24,8.10
2017,06,17,03,25,9.60
2017,06,17,03,26,9.60
2017,06,17,03,27,9.60
2017,06,17,03,28,9.60
2017,06,17,03,29,9.60
2017,06,17,03,30,9.60
2017,06,17,03,31,8.10
2017,06,17,03,32,9.60
2017,06,17,03,33,9.60
2017,06,17,03,34,8.10
2017,06,17,03,35,6.40
2017,06,17,03,36,9.60
2017,06,17,03,37,8.10
2017,06,17,03,38,9.60
2017,06,17,03,39,9.60
2017,06,17,03,40,9.60
2017,06,17,03,41,9.60
2017,06,17,03,42,9.60
2017,06,17,03,43,9.60
2017,06,17,03,44,9.60
2017,06,17,03,45,11.30
2017,06,17,03,46,9.60
2017,06,17,03,47,9.60
2017,06,17,03,48,11.30
2017,06,17,03,49,11.30
2017,06,17,03,50,9.60
2017,06,17,03,51,9.60
2017,06,17,03,52,6.40
2017,06,17,03,53,8.10
2017,06,17,03,54,9.60
2017,06,17,03,55,8.10
2017,06,17,03,56,6.40
2017,06,17,03,57,6.40
2017,06,17,03,58,3.20
2017,06,17,03,59,1.60
2017,06,17,04,00,6.40
2017,06,17,04,01,8.10
2017,06,17,04,02,8.10
2017,06,17,04,03,8.10
2017,06,17,04,04,8.10
2017,06,17,04,05,8.10
2017,06,17,04,06,6.40
2017,06,17,04,07,8.10
2017,06,17,04,08,1.60
2017,06,17,04,09,3.20
2017,06,17,04,10,1.60
2017,06,17,04,11,8.10
2017,06,17,04,12,8.10
2017,06,17,04,13,9.60
2017,06,17,04,14,9.60
2017,06,17,04,15,9.60
2017,06,17,04,16,11.30
2017,06,17,04,17,9.60
2017,06,17,04,18,11.30
2017,06,17,04,19,8.10
2017,06,17,04,20,8.10
2017,06,17,04,21,3.20
2017,06,17,04,22,3.20
2017,06,17,04,23,1.60
2017,06,17,04,24,3.20
2017,06,17,04,25,3.20
2017,06,17,04,26,1.60
2017,06,17,04,27,3.20
2017,06,17,04,28,6.40
2017,06,17,04,29,3.20
2017,06,17,04,30,6.40
2017,06,17,04,31,3.20
2017,06,17,04,32,6.40
2017,06,17,04,33,6.40
2017,06,17,04,34,9.60
2017,06,17,04,35,9.60
2017,06,17,04,36,9.60
2017,06,17,04,37,9.60
2017,06,17,04,38,8.10
2017,06,17,04,39,11.30
2017,06,17,04,40,9.60
2017,06,17,04,41,8.10
2017,06,17,04,42,3.20
2017,06,17,04,43,6.40
2017,06,17,04,44,6.40
2017,06,17,04,45,9.60
2017,06,17,04,46,9.60
2017,06,17,04,47,8.10
2017,06,17,04,48,9.60
2017,06,17,04,49,9.60
2017,06,17,04,50,6.40
2017,06,17,04,51,8.10
2017,06,17,04,52,8.10
2017,06,17,04,53,8.10
2017,06,17,04,54,3.20
2017,06,17,04,55,3.20
2017,06,17,04,56,3.20
2017,06,17,04,57,8.10
2017,06,17,04,58,8.10
2017,06,17,04,59,8.10
2017,06,17,05,00,8.10
2017,06,17,05,01,8.10
2017,06,17,05,02,9.60
2017,06,17,05,03,9.60
2017,06,17,05,04,9.60
2017,06,17,05,05,9.60
2017,06,17,05,06,8.10
2017,06,17,05,07,6.40
2017,06,17,05,08,11.30
2017,06,17,05,09,9.60
2017,06,17,05,10,9.60
2017,06,17,05,11,8.10
2017,06,17,05,12,9.60
2017,06,17,05,13,9.60
2017,06,17,05,14,8.10
2017,06,17,05,15,8.10
2017,06,17,05,16,6.40
2017,06,17,05,17,1.60
2017,06,17,05,18,9.60
2017,06,17,05,19,6.40
2017,06,17,05,20,3.20
2017,06,17,05,21,3.20
2017,06,17,05,22,3.20
2017,06,17,05,23,6.40
2017,06,17,05,24,9.60
2017,06,17,05,25,6.40
2017,06,17,05,26,8.10
2017,06,17,05,27,8.10
2017,06,17,05,28,6.40
2017,06,17,05,29,6.40
2017,06,17,05,30,8.10
2017,06,17,05,31,9.60
2017,06,17,05,32,9.60
2017,06,17,05,33,8.10
2017,06,17,05,34,8.10
2017,06,17,05,35,8.10
2017,06,17,05,36,8.10
2017,06,17,05,37,9.60
2017,06,17,05,38,9.60
2017,06,17,05,39,9.60
2017,06,17,05,40,8.10
2017,06,17,05,41,9.60
2017,06,17,05,42,8.10
2017,06,17,05,43,8.10
2017,06,17,05,44,8.10
2017,06,17,05,45,6.40
2017,06,17,05,46,11.30
2017,06,17,05,47,8.10
2017,06,17,05,48,8.10
2017,06,17,05,49,6.40
2017,06,17,05,50,6.40
2017,06,17,05,51,6.40
2017,06,17,05,52,6.40
2017,06,17,05,53,3.20
2017,06,17,05,54,6.40
2017,06,17,05,55,8.10
2017,06,17,05,56,3.20
2017,06,17,05,57,1.60
2017,06,17,05,58,6.40
2017,06,17,05,59,6.40
2017,06,17,06,00,6.40
2017,06,17,06,01,6.40
2017,06,17,06,02,1.60
2017,06,17,06,10,1.60
2017,06,17,06,20,1.60
2017,06,17,06,22,1.60
2017,06,17,06,23,1.60
2017,06,17,06,26,1.60
2017,06,17,06,29,1.60
2017,06,17,06,33,3.20
2017,06,17,06,36,1.60
2017,06,17,06,37,1.60
2017,06,17,06,38,6.40
2017,06,17,06,39,1.60
2017,06,17,06,41,3.20
2017,06,17,06,42,3.20
2017,06,17,06,43,1.60
2017,06,17,06,44,1.60
2017,06,17,06,52,3.20
2017,06,17,06,53,1.60
2017,06,17,06,57,3.20
2017,06,17,06,58,1.60
2017,06,17,07,00,1.60
2017,06,17,07,04,8.10
2017,06,17,07,05,6.40
2017,06,17,07,07,1.60
2017,06,17,07,08,8.10
2017,06,17,07,09,6.40
2017,06,17,07,10,6.40
2017,06,17,07,11,8.10
2017,06,17,07,12,6.40
2017,06,17,07,13,6.40
2017,06,17,07,14,3.20
2017,06,17,07,15,1.60
2017,06,17,07,16,8.10
2017,06,17,07,17,6.40
2017,06,17,07,18,3.20
2017,06,17,07,19,3.20
2017,06,17,07,20,3.20
2017,06,17,07,22,1.60
2017,06,17,07,23,1.60
2017,06,17,07,24,8.10
2017,06,17,07,25,1.60
2017,06,17,07,27,8.10
2017,06,17,07,28,6.40
2017,06,17,07,29,6.40
2017,06,17,07,31,3.20
2017,06,17,07,32,8.10
2017,06,17,07,33,6.40
2017,06,17,07,34,8.10
2017,06,17,07,35,8.10
2017,06,17,07,36,6.40
2017,06,17,07,37,8.10
2017,06,17,07,38,8.10
2017,06,17,07,39,3.20
2017,06,17,07,40,8.10
2017,06,17,07,41,8.10
2017,06,17,07,42,6.40
2017,06,17,07,43,1.60
2017,06,17,07,44,3.20
2017,06,17,07,45,3.20
2017,06,17,07,46,6.40
2017,06,17,07,47,6.40
2017,06,17,07,49,3.20
2017,06,17,07,50,3.20
2017,06,17,07,52,3.20
2017,06,17,07,54,3.20
2017,06,17,07,55,3.20
2017,06,17,07,56,6.40
2017,06,17,07,57,6.40
2017,06,17,07,58,6.40
2017,06,17,07,59,8.10
2017,06,17,08,00,1.60
2017,06,17,08,01,3.20
2017,06,17,08,02,3.20
2017,06,17,08,03,3.20
2017,06,17,08,04,3.20
2017,06,17,08,07,3.20
2017,06,17,08,08,3.20
2017,06,17,08,09,1.60
2017,06,17,08,10,6.40
2017,06,17,08,11,8.10
2017,06,17,08,12,3.20
2017,06,17,08,13,1.60
2017,06,17,08,14,8.10
2017,06,17,08,15,9.60
2017,06,17,08,16,8.10
2017,06,17,08,17,6.40
2017,06,17,08,18,8.10
2017,06,17,08,19,3.20
2017,06,17,08,20,8.10
2017,06,17,08,21,6.40
2017,06,17,08,23,3.20
2017,06,17,08,24,1.60
2017,06,17,08,25,6.40
2017,06,17,08,26,9.60
2017,06,17,08,27,8.10
2017,06,17,08,28,6.40
2017,06,17,08,29,3.20
2017,06,17,08,30,1.60
2017,06,17,08,31,1.60
2017,06,17,08,32,1.60
2017,06,17,08,33,3.20
2017,06,17,08,34,8.10
2017,06,17,08,35,1.60
2017,06,17,08,36,6.40
2017,06,17,08,38,1.60
2017,06,17,08,39,3.20
2017,06,17,08,40,6.40
2017,06,17,08,41,8.10
2017,06,17,08,42,8.10
2017,06,17,08,43,1.60
2017,06,17,08,44,6.40
2017,06,17,08,46,9.60
2017,06,17,08,47,8.10
2017,06,17,08,48,1.60
2017,06,17,08,50,3.20
2017,06,17,08,51,3.20
2017,06,17,08,52,1.60
2017,06,17,08,53,1.60
2017,06,17,08,54,3.20
2017,06,17,08,55,6.40
2017,06,17,08,56,1.60
2017,06,17,08,57,3.20
2017,06,17,08,58,8.10
2017,06,17,08,59,3.20
2017,06,17,09,00,3.20
2017,06,17,09,01,1.60
2017,06,17,09,02,1.60
2017,06,17,09,03,6.40
2017,06,17,09,04,1.60
2017,06,17,09,05,8.10
2017,06,17,09,06,3.20
2017,06,17,09,09,1.60
2017,06,17,09,10,11.30
2017,06,17,09,11,6.40
2017,06,17,09,12,3.20
2017,06,17,09,13,6.40
2017,06,17,09,14,6.40
2017,06,17,09,15,12.90
2017,06,17,09,16,11.30
2017,06,17,09,17,6.40
2017,06,17,09,18,8.10
2017,06,17,09,19,3.20
2017,06,17,09,20,3.20
2017,06,17,09,21,6.40
2017,06,17,09,22,1.60
2017,06,17,09,26,8.10
2017,06,17,09,27,8.10
2017,06,17,09,28,3.20
2017,06,17,09,29,6.40
2017,06,17,09,30,8.10
2017,06,17,09,31,9.60
2017,06,17,09,32,9.60
2017,06,17,09,33,3.20
2017,06,17,09,34,9.60
2017,06,17,09,35,12.90
2017,06,17,14,11,8.10
2017,06,17,14,12,9.60
2017,06,17,14,13,11.30
2017,06,17,14,14,9.60
2017,06,17,14,15,6.40
2017,06,17,14,16,6.40
2017,06,17,14,17,6.40
2017,06,17,14,18,9.60
2017,06,17,14,19,11.30
2017,06,17,14,20,12.90
2017,06,17,14,21,12.90
2017,06,17,14,22,9.60
2017,06,17,14,23,12.90
2017,06,17,14,24,11.30
2017,06,17,14,25,9.60
2017,06,17,14,26,9.60
2017,06,17,14,27,8.10
2017,06,17,14,28,1.60
2017,06,17,14,29,1.60
2017,06,17,14,30,4.80
2017,06,17,14,31,1.60
2017,06,17,14,32,3.20
2017,06,17,14,33,6.40
2017,06,17,14,34,14.50
2017,06,17,14,35,16.10
2017,06,17,14,36,9.60
2017,06,17,14,37,12.90
2017,06,17,14,38,12.90
2017,06,17,14,39,11.30
2017,06,17,14,40,16.10
2017,06,17,14,41,14.50
2017,06,17,14,42,9.60
2017,06,17,14,43,11.30
2017,06,17,14,44,11.30
2017,06,17,14,45,11.30
2017,06,17,14,46,9.60
2017,06,17,14,47,8.10
2017,06,17,14,48,11.30
2017,06,17,14,49,8.10
2017,06,17,14,50,8.10
2017,06,17,14,51,9.60
2017,06,17,14,52,11.30
2017,06,17,14,53,8.10
2017,06,17,14,54,3.20
2017,06,17,14,55,1.60
2017,06,17,14,56,6.40
2017,06,17,14,57,3.20
2017,06,17,14,59,1.60
2017,06,17,15,00,8.10
2017,06,17,15,01,3.20
2017,06,17,15,02,8.10
2017,06,17,15,03,9.60
2017,06,17,15,04,1.60
2017,06,17,15,05,6.40
2017,06,17,15,06,8.10
2017,06,17,15,07,11.30
2017,06,17,15,08,9.60
2017,06,17,15,09,11.30
2017,06,17,15,10,11.30
2017,06,17,15,11,8.10
2017,06,17,15,12,9.60
2017,06,17,15,13,11.30
2017,06,17,15,14,9.60
2017,06,17,15,15,3.20
2017,06,17,15,16,12.90
2017,06,17,15,17,12.90
2017,06,17,15,18,11.30
2017,06,17,15,19,16.10
2017,06,17,15,20,12.90
2017,06,17,15,21,16.10
2017,06,17,15,22,14.50
2017,06,17,15,23,12.90
2017,06,17,15,24,14.50
2017,06,17,15,25,9.60
2017,06,17,15,26,19.30
2017,06,17,15,27,17.70
2017,06,17,15,28,19.30
2017,06,17,15,29,12.90
2017,06,17,15,30,16.10
2017,06,17,15,31,14.50
2017,06,17,15,32,17.70
2017,06,17,15,33,8.10
2017,06,17,15,34,17.70
2017,06,17,15,35,16.10
2017,06,17,15,36,14.50
2017,06,17,15,37,12.90
2017,06,17,15,38,20.90
2017,06,17,15,39,20.90
2017,06,17,15,40,14.50
2017,06,17,15,41,12.90
2017,06,17,15,42,16.10
2017,06,17,15,43,11.30
2017,06,17,15,44,9.60
2017,06,17,15,45,12.90
2017,06,17,15,46,12.90
2017,06,17,15,47,14.50
2017,06,17,15,48,14.50
2017,06,17,15,49,17.70
2017,06,17,15,50,17.70
2017,06,17,15,51,17.70
2017,06,17,15,52,17.70
2017,06,17,15,53,16.10
2017,06,17,15,54,8.10
2017,06,17,15,55,14.50
2017,06,17,15,56,14.50
2017,06,17,15,57,16.10
2017,06,17,15,58,6.40
2017,06,17,15,59,6.40
2017,06,17,16,00,11.30
2017,06,17,16,01,9.60
2017,06,17,16,02,14.50
2017,06,17,16,03,17.70
2017,06,17,16,04,14.50
2017,06,17,16,05,14.50
2017,06,17,16,06,16.10
2017,06,17,16,07,12.90
2017,06,17,16,08,11.30
2017,06,17,16,09,11.30
2017,06,17,16,10,11.30
2017,06,17,16,11,8.10
2017,06,17,16,12,17.70
2017,06,17,16,13,11.30
2017,06,17,16,14,16.10
2017,06,17,16,15,19.30
2017,06,17,16,16,19.30
2017,06,17,16,17,22.50
2017,06,17,16,18,12.90
2017,06,17,16,19,14.50
2017,06,17,16,20,12.90
2017,06,17,16,21,19.30
2017,06,17,16,22,16.10
2017,06,17,16,23,11.30
2017,06,17,16,24,8.10
2017,06,17,16,25,9.60
2017,06,17,16,26,8.10
2017,06,17,16,27,8.10
2017,06,17,16,28,6.40
2017,06,17,16,29,8.10
2017,06,17,16,30,17.70
2017,06,17,16,31,16.10
2017,06,17,16,32,14.50
2017,06,17,16,33,14.50
2017,06,17,16,34,12.90
2017,06,17,16,35,11.30
2017,06,17,16,36,9.60
2017,06,17,16,37,11.30
2017,06,17,16,38,12.90
2017,06,17,16,39,14.50
2017,06,17,16,40,16.10
2017,06,17,16,41,12.90
2017,06,17,16,42,11.30
2017,06,17,16,43,9.60
2017,06,17,16,44,11.30
2017,06,17,16,45,8.10
2017,06,17,16,46,8.10
2017,06,17,16,47,9.60
2017,06,17,16,48,11.30
2017,06,17,16,49,11.30
2017,06,17,16,50,9.60
2017,06,17,16,51,9.60
2017,06,17,16,52,6.40
2017,06,17,16,53,9.60
2017,06,17,16,54,11.30
2017,06,17,16,55,9.60
2017,06,17,16,56,9.60
2017,06,17,16,57,8.10
2017,06,17,16,58,6.40
2017,06,17,16,59,11.30
2017,06,17,17,00,14.50
2017,06,17,17,01,11.30
2017,06,17,17,02,11.30
2017,06,17,17,03,16.10
2017,06,17,17,04,19.30
2017,06,17,17,05,16.10
2017,06,17,17,06,11.30
2017,06,17,17,07,12.90
2017,06,17,17,08,16.10
2017,06,17,17,09,12.90
2017,06,17,17,10,17.70
2017,06,17,17,11,19.30
2017,06,17,17,12,11.30
2017,06,17,17,13,12.90
2017,06,17,17,14,11.30
2017,06,17,17,15,8.10
2017,06,17,17,16,12.90
2017,06,17,17,17,16.10
2017,06,17,17,18,8.10
2017,06,17,17,19,16.10
2017,06,17,17,20,14.50
2017,06,17,17,21,12.90
2017,06,17,17,22,8.10
2017,06,17,17,23,8.10
2017,06,17,17,24,8.10
2017,06,17,17,25,12.90
2017,06,17,17,26,14.50
2017,06,17,17,27,11.30
2017,06,17,17,28,12.90
2017,06,17,17,29,8.10
2017,06,17,17,30,11.30
2017,06,17,17,31,11.30
2017,06,17,17,32,9.60
2017,06,17,17,33,9.60
2017,06,17,17,34,12.90
2017,06,17,17,35,16.10
2017,06,17,17,36,8.10
2017,06,17,17,37,8.10
2017,06,17,17,38,1.60
2017,06,17,17,39,14.50
2017,06,17,17,40,14.50
2017,06,17,17,41,19.30
2017,06,17,17,42,12.90
2017,06,17,17,43,14.50
2017,06,17,17,44,11.30
2017,06,17,17,45,16.10
2017,06,17,17,46,9.60
2017,06,17,17,47,14.50
2017,06,17,17,48,8.10
2017,06,17,17,49,12.90
2017,06,17,17,50,8.10
2017,06,17,17,51,9.60
2017,06,17,17,52,1.60
2017,06,17,17,53,3.20
2017,06,17,17,54,6.40
2017,06,17,17,55,8.10
2017,06,17,17,56,8.10
2017,06,17,17,57,8.10
2017,06,17,17,58,11.30
2017,06,17,17,59,6.40
2017,06,17,18,00,8.10
2017,06,17,18,01,9.60
2017,06,17,18,02,8.10
2017,06,17,18,03,3.20
2017,06,17,18,04,6.40
2017,06,17,18,05,8.10
2017,06,17,18,06,9.60
2017,06,17,18,07,11.30
2017,06,17,18,08,11.30
2017,06,17,18,09,12.90
2017,06,17,18,10,16.10
2017,06,17,18,11,14.50
2017,06,17,18,12,12.90
2017,06,17,18,13,8.10
2017,06,17,18,14,9.60
2017,06,17,18,15,9.60
2017,06,17,18,16,9.60
2017,06,17,18,17,8.10
2017,06,17,18,18,8.10
2017,06,17,18,19,6.40
2017,06,17,18,20,9.60
2017,06,17,18,21,8.10
2017,06,17,18,22,11.30
2017,06,17,18,23,11.30
2017,06,17,18,24,12.90
2017,06,17,18,25,9.60
2017,06,17,18,26,12.90
2017,06,17,18,27,14.50
2017,06,17,18,28,17.70
2017,06,17,18,29,12.90
2017,06,17,18,30,11.30
2017,06,17,18,31,11.30
2017,06,17,18,32,17.70
2017,06,17,18,33,11.30
2017,06,17,18,34,17.70
2017,06,17,18,35,9.60
2017,06,17,18,36,8.10
2017,06,17,18,37,9.60
2017,06,17,18,38,8.10
2017,06,17,18,39,11.30
2017,06,17,18,40,11.30
2017,06,17,18,41,11.30
2017,06,17,18,42,9.60
2017,06,17,18,43,8.10
2017,06,17,18,44,6.40
2017,06,17,18,45,6.40
2017,06,17,18,46,3.20
2017,06,17,18,47,1.60
2017,06,17,18,48,11.30
2017,06,17,18,49,9.60
2017,06,17,18,50,8.10
2017,06,17,18,51,8.10
2017,06,17,18,53,8.10
2017,06,17,18,54,8.10
2017,06,17,18,55,6.40
2017,06,17,18,56,6.40
2017,06,17,18,57,8.10
2017,06,17,18,58,8.10
2017,06,17,18,59,6.40
2017,06,17,19,00,6.40
2017,06,17,19,01,9.60
2017,06,17,19,02,6.40
2017,06,17,19,03,3.20
2017,06,17,19,04,3.20
2017,06,17,19,05,8.10
2017,06,17,19,06,1.60
2017,06,17,19,11,1.60
2017,06,17,19,12,3.20
2017,06,17,19,13,1.60
2017,06,17,19,14,1.60
2017,06,17,19,15,9.60
2017,06,17,19,16,6.40
2017,06,17,19,17,9.60
2017,06,17,19,18,9.60
2017,06,17,19,19,3.20
2017,06,17,19,20,6.40
2017,06,17,19,21,6.40
2017,06,17,19,22,3.20
2017,06,17,19,23,3.20
2017,06,17,19,24,8.10
2017,06,17,19,25,1.60
2017,06,17,19,26,6.40
2017,06,17,19,27,8.10
2017,06,17,19,28,1.60
2017,06,17,19,29,3.20
2017,06,17,19,30,6.40
2017,06,17,19,31,1.60
2017,06,17,19,34,3.20
2017,06,17,19,35,3.20
2017,06,17,19,36,1.60
2017,06,17,19,38,3.20
2017,06,17,19,40,1.60
2017,06,17,19,41,1.60
2017,06,17,19,42,9.60
2017,06,17,19,43,8.10
2017,06,17,19,44,3.20
2017,06,17,19,45,9.60
2017,06,17,19,46,6.40
2017,06,17,19,47,8.10
2017,06,17,19,48,8.10
2017,06,17,19,49,3.20
2017,06,17,19,50,6.40
2017,06,17,19,51,6.40
2017,06,17,19,52,1.60
2017,06,17,19,53,1.60
2017,06,17,19,56,3.20
2017,06,17,19,57,6.40
2017,06,17,19,58,8.10
2017,06,17,19,59,6.40
2017,06,17,20,00,3.20
2017,06,17,20,01,3.20
2017,06,17,20,02,9.60
2017,06,17,20,03,1.60
2017,06,17,20,04,1.60
2017,06,17,20,05,8.10
2017,06,17,20,06,6.40
2017,06,17,20,07,8.10
2017,06,17,20,08,9.60
2017,06,17,20,09,6.40
2017,06,17,20,10,6.40
2017,06,17,20,11,3.20
2017,06,17,20,12,1.60
2017,06,17,20,13,1.60
2017,06,17,20,14,8.10
2017,06,17,20,15,11.30
2017,06,17,20,16,11.30
2017,06,17,20,17,9.60
2017,06,17,20,18,9.60
2017,06,17,20,19,8.10
2017,06,17,20,20,9.60
2017,06,17,20,21,1.60
2017,06,17,20,22,3.20
2017,06,17,20,23,8.10
2017,06,17,20,24,1.60
2017,06,17,20,25,1.60
2017,06,17,20,26,6.40
2017,06,17,20,27,6.40
2017,06,17,20,28,6.40
2017,06,17,20,30,6.40
2017,06,17,20,31,1.60
2017,06,17,20,32,3.20
2017,06,17,20,33,11.30
2017,06,17,20,34,6.40
2017,06,17,20,35,8.10
2017,06,17,20,36,1.60
2017,06,17,20,37,6.40
2017,06,17,20,38,1.60
2017,06,17,20,39,6.40
2017,06,17,20,40,1.60
2017,06,17,20,41,3.20
2017,06,17,20,42,1.60
2017,06,17,20,43,3.20
2017,06,17,20,44,3.20
2017,06,17,20,45,3.20
2017,06,17,20,47,6.40
2017,06,17,20,48,6.40
2017,06,17,20,49,6.40
2017,06,17,20,50,3.20
2017,06,17,20,52,1.60
2017,06,17,20,53,3.20
2017,06,17,20,54,3.20
2017,06,17,20,55,6.40
2017,06,17,20,56,3.20
2017,06,17,20,57,3.20
2017,06,17,20,58,8.10
2017,06,17,20,59,6.40
2017,06,17,21,00,6.40
2017,06,17,21,01,1.60
2017,06,17,21,05,1.60
2017,06,17,21,06,1.60
2017,06,17,21,07,9.60
2017,06,17,21,08,8.10
2017,06,17,21,09,6.40
2017,06,17,21,10,3.20
2017,06,17,21,11,9.60
2017,06,17,21,12,9.60
2017,06,17,21,13,11.30
2017,06,17,21,14,12.90
2017,06,17,21,15,6.40
2017,06,17,21,16,9.60
2017,06,17,21,17,3.20
2017,06,17,21,18,8.10
2017,06,17,21,19,3.20
2017,06,17,21,20,8.10
2017,06,17,21,21,8.10
2017,06,17,21,22,8.10
2017,06,17,21,23,3.20
2017,06,17,21,24,3.20
2017,06,17,21,25,1.60
2017,06,17,21,26,1.60
2017,06,17,21,27,6.40
2017,06,17,21,28,6.40
2017,06,17,21,29,6.40
2017,06,17,21,30,1.60
2017,06,17,21,31,3.20
2017,06,17,21,32,6.40
2017,06,17,21,33,6.40
2017,06,17,21,34,1.60
2017,06,17,21,35,1.60
2017,06,17,21,36,1.60
2017,06,17,21,39,6.40
2017,06,17,21,40,8.10
2017,06,17,21,41,11.30
2017,06,17,21,42,9.60
2017,06,17,21,43,9.60
2017,06,17,21,44,6.40
2017,06,17,21,45,6.40
2017,06,17,21,46,9.60
2017,06,17,21,47,6.40
2017,06,17,21,48,1.60
2017,06,17,21,49,9.60
2017,06,17,21,50,8.10
2017,06,17,21,51,11.30
2017,06,17,21,52,6.40
2017,06,17,21,53,6.40
2017,06,17,21,54,6.40
2017,06,17,21,55,9.60
2017,06,17,21,56,8.10
2017,06,17,21,57,11.30
2017,06,17,21,58,8.10
2017,06,17,21,59,8.10
2017,06,17,22,00,6.40
2017,06,17,22,01,6.40
2017,06,17,22,02,8.10
2017,06,17,22,03,8.10
2017,06,17,22,04,6.40
2017,06,17,22,05,8.10
2017,06,17,22,06,8.10
2017,06,17,22,07,9.60
2017,06,17,22,08,6.40
2017,06,17,22,09,8.10
2017,06,17,22,10,9.60
2017,06,17,22,11,9.60
2017,06,17,22,12,11.30
2017,06,17,22,13,12.90
2017,06,17,22,14,11.30
2017,06,17,22,15,8.10
2017,06,17,22,16,3.20
2017,06,17,22,17,6.40
2017,06,17,22,18,8.10
2017,06,17,22,19,8.10
2017,06,17,22,20,8.10
2017,06,17,22,21,6.40
2017,06,17,22,22,3.20
2017,06,17,22,23,11.30
2017,06,17,22,24,11.30
2017,06,17,22,25,12.90
2017,06,17,22,26,11.30
2017,06,17,22,27,8.10
2017,06,17,22,29,3.20
2017,06,17,22,30,8.10
2017,06,17,22,31,8.10
2017,06,17,22,32,6.40
2017,06,17,22,33,8.10
2017,06,17,22,34,12.90
2017,06,17,22,35,9.60
2017,06,17,22,36,3.20
2017,06,17,22,37,8.10
2017,06,17,22,38,8.10
2017,06,17,22,39,9.60
2017,06,17,22,40,8.10
2017,06,17,22,41,9.60
2017,06,17,22,42,9.60
2017,06,17,22,43,6.40
2017,06,17,22,44,3.20
2017,06,17,22,46,3.20
2017,06,17,22,47,9.60
2017,06,17,22,48,11.30
2017,06,17,22,49,3.20
2017,06,17,22,50,3.20
2017,06,17,22,51,8.10
2017,06,17,22,52,9.60
2017,06,17,22,53,8.10
2017,06,17,22,54,4.80
2017,06,17,22,55,3.20
2017,06,17,22,56,6.40
2017,06,17,22,57,12.90
2017,06,17,22,58,8.10
2017,06,17,22,59,3.20
2017,06,17,23,00,3.20
2017,06,17,23,01,8.10
2017,06,17,23,02,3.20
2017,06,17,23,03,9.60
2017,06,17,23,04,11.30
2017,06,17,23,05,8.10
2017,06,17,23,06,1.60
2017,06,17,23,07,8.10
2017,06,17,23,08,6.40
2017,06,17,23,09,3.20
2017,06,17,23,10,8.10
2017,06,17,23,11,6.40
2017,06,17,23,12,3.20
2017,06,17,23,13,11.30
2017,06,17,23,14,9.60
2017,06,17,23,15,3.20
2017,06,17,23,16,1.60
2017,06,17,23,18,3.20
2017,06,17,23,19,8.10
2017,06,17,23,20,3.20
2017,06,17,23,21,1.60
2017,06,17,23,22,6.40
2017,06,17,23,23,6.40
2017,06,17,23,25,6.40
2017,06,17,23,26,1.60
2017,06,17,23,27,1.60
2017,06,17,23,28,3.20
2017,06,17,23,29,1.60
2017,06,17,23,33,1.60
2017,06,17,23,34,1.60
2017,06,17,23,42,1.60
2017,06,17,23,44,1.60
